EW9276 Weather Reports


time (UTC)temp
F
wind
direction
speed
knots
gust
knots
rain 1hr
in
rain 24hr
in
rain mn
in
humidity
%
barometer
mb
20260503053731 35 126 0.0 0.0 0.00 0.00 0.00 94 1018.4
20260503052232 36 121 0.0 0.0 0.00 0.00 0.00 94 1018.4
20260503050734 37 115 0.0 0.0 0.00 0.00 0.00 90 1018.4
20260503050730 37 129 0.0 0.0 0.00 0.00 0.00 92 1018.5
20260503043729 37 103 0.0 0.0 0.00 0.00 0.00 89 1018.3
20260503042226 38 99 0.0 0.0 0.00 0.00 0.00 88 1018.3
20260503040730 39 128 0.0 0.0 0.00 0.00 0.00 85 1018.4
20260503040726 38 120 0.0 0.0 0.00 0.00 0.00 87 1018.2
20260503033731 40 42 0.0 0.0 0.00 0.00 0.00 83 1018.2
20260503033726 40 56 0.0 0.0 0.00 0.00 0.00 83 1018.3
20260503030725 40 30 0.0 0.0 0.00 0.00 0.00 80 1018.3
20260503025229 42 73 0.0 0.0 0.00 0.00 0.00 77 1018.3
20260503025225 40 63 0.0 0.0 0.00 0.00 0.00 80 1018.3
20260503022224 43 66 0.0 0.0 0.00 0.00 0.00 73 1018.1
20260503020728 46 68 0.0 0.0 0.00 0.00 0.00 66 1017.9
20260503020723 45 82 0.0 0.0 0.00 0.00 0.00 69 1018.0
20260503013723 46 56 0.0 1.7 0.00 0.00 0.00 63 1017.8
20260503012220 46 45 0.0 7.0 0.00 0.00 0.00 60 1017.6
20260503010721 47 352 3.5 8.7 0.00 0.00 0.00 58 1017.5
20260503005220 47 341 1.7 8.7 0.00 0.00 0.00 56 1017.4
20260503003721 47 330 3.5 8.7 0.00 0.00 0.00 55 1017.3
20260503002219 48 38 0.0 8.7 0.00 0.00 0.00 54 1017.2
20260503000718 48 345 3.5 11.3 0.00 0.00 0.00 53 1017.1
20260502235217 49 117 0.9 7.0 0.00 0.00 0.00 53 1017.0
20260502233714 49 9 6.1 8.7 0.00 0.00 0.00 51 1016.9
20260502232211 49 329 7.8 11.3 0.00 0.00 0.00 52 1016.9
20260502230707 50 342 3.5 13.0 0.00 0.00 0.00 52 1016.8
20260502225310 51 339 1.7 14.8 0.00 0.00 0.00 49 1016.6
20260502223702 51 7 5.2 14.8 0.00 0.00 0.00 49 1016.7
20260502220658 51 350 6.1 14.8 0.00 0.00 0.00 48 1016.5
20260502215154 51 323 8.7 13.0 0.00 0.00 0.00 49 1016.5
20260502213651 52 358 3.5 7.0 0.00 0.00 0.00 49 1016.4
20260502212149 52 327 2.6 11.3 0.00 0.00 0.00 48 1016.3
20260502210647 52 39 2.6 14.8 0.00 0.00 0.00 49 1016.2
20260502205146 52 337 5.2 17.4 0.00 0.00 0.00 47 1016.2
20260502203643 54 308 7.8 11.3 0.00 0.00 0.00 48 1016.1
20260502203638 54 10 4.3 7.0 0.00 0.00 0.00 47 1016.3
20260502200634 54 322 7.8 13.0 0.00 0.00 0.00 46 1016.4
20260502200629 53 2 4.3 7.0 0.00 0.00 0.00 46 1016.5
20260502193624 52 40 1.7 7.0 0.00 0.00 0.00 47 1016.4
20260502192119 0 0.0 0.0 0.00 0.00 0.00 1016.7
20260502190613 53 359 9.6 20.0 0.00 0.00 0.00 46 1016.6
20260502185108 54 349 7.0 8.7 0.00 0.00 0.00 44 1016.7
20260502183603 54 7 7.8 13.0 0.00 0.00 0.00 46 1016.9
20260502182058 53 5 7.8 11.3 0.00 0.00 0.00 46 1016.9
20260502180552 53 343 5.2 11.3 0.00 0.00 0.00 44 1017.1
20260502163521 52 331 6.1 8.7 0.00 0.00 0.00 53 1017.3
20260502162018 52 315 4.3 7.0 0.00 0.00 0.00 52 1017.5
20260502160514 51 17 7.0 8.7 0.00 0.00 0.00 51 1017.6
20260502152004 50 282 6.1 11.3 0.00 0.00 0.00 53 1017.6
20260502150503 49 299 7.8 8.7 0.00 0.00 0.00 53 1017.6
20260502130449 39 348 1.7 4.3 0.00 0.00 0.00 76 1017.7
20260502130444 38 320 0.9 1.7 0.00 0.00 0.00 99 1017.5
20260502121934 37 2 0.0 4.3 0.00 0.00 0.00 99 1017.5
20260502120431 36 142 0.0 0.0 0.00 0.00 0.00 99 1017.4
20260502114929 36 275 0.0 0.0 0.00 0.00 0.00 99 1017.4
20260502113428 36 25 0.0 0.0 0.00 0.00 0.00 99 1017.3
20260502111923 35 345 0.0 0.0 0.00 0.00 0.00 99 1017.2
20260502110418 35 286 0.0 0.0 0.00 0.00 0.00 99 1017.1
20260502104914 35 83 0.0 0.0 0.00 0.00 0.00 99 1017.0
20260502103408 35 111 0.0 0.0 0.00 0.00 0.00 99 1017.1
20260502101903 35 147 0.0 0.0 0.00 0.00 0.00 99 1017.2
20260502100359 34 156 0.0 0.0 0.00 0.00 0.00 99 1017.2
20260502090334 37 175 0.0 0.0 0.00 0.00 0.00 99 1017.3
20260502070320 37 114 0.0 0.0 0.00 0.00 0.00 99 1016.8
20260502064819 37 124 0.0 0.0 0.00 0.00 0.00 99 1017.0
20260502063314 37 86 0.0 0.0 0.00 0.00 0.00 99 1017.1